MCY weather

Sunshine Coast Airport
Maroochydore, Queensland, Australia

Public forecast

Using degrees Celsius for public forecast. Weather courtesy of forecast.io.

METAR (pilot weather report)

Closest report is Brisbane International Airport, 46.9 nm (86.9 km) S. Retrieved 2019/03/22 00:00 UTC (6 minutes ago):

YBBN 220000Z 07005KT 9999 VCSH FEW015 SCT025 26/23 Q1017 INTER 0030/0300 3000 SHRA BKN015

TAF (pilot weather forecast)

Forecast is more than 6 hours old.

Closest forecast is Brisbane International Airport, 46.9 nm (86.9 km) S. Retrieved 2019/03/21 12:39 UTC (11 hours ago):

TAF YBBN 211105Z 2112/2218 11008KT 9999 -SHRA SCT012 BKN030 FM211600 20005KT 9999 -SHRA SCT010 BKN030 FM212300 12007KT 9999 SCT025 SCT040 FM220200 10012KT 9999 FEW030 FM220900 10005KT 9999 SCT020 FM221300 19003KT 9999 SCT020 INTER 2112/2122 5000 SHRA BKN015 PROB30 TEMPO 2112/2118 VRB20G35KT 2000 TSRA BKN015 SCT030CB